TimeAKDT,TemperatureF,Dew PointF,Humidity,Sea Level PressureIn,VisibilityMPH,Wind Direction,Wind SpeedMPH,Gust SpeedMPH,PrecipitationIn,Events,Conditions,WindDirDegrees,DateUTC
12:16 AM,55.4,51.8,88,30.00,9.0,SE,9.2,-,N/A,,Overcast,140,2012-09-04 08:16:00
12:36 AM,55.4,50.0,82,30.00,10.0,SE,10.4,-,N/A,,Overcast,140,2012-09-04 08:36:00
12:56 AM,55.4,50.0,82,30.00,10.0,SSE,6.9,-,N/A,,Overcast,150,2012-09-04 08:56:00
1:16 AM,57.2,50.0,77,30.00,10.0,SSE,9.2,-,N/A,,Overcast,150,2012-09-04 09:16:00
1:36 AM,55.4,50.0,82,30.00,10.0,SSE,8.1,-,N/A,,Overcast,150,2012-09-04 09:36:00
1:56 AM,55.4,50.0,82,30.00,10.0,SE,10.4,-,N/A,,Overcast,140,2012-09-04 09:56:00
2:16 AM,55.4,51.8,88,30.00,10.0,SE,9.2,-,N/A,,Overcast,140,2012-09-04 10:16:00
2:36 AM,55.4,51.8,88,30.00,10.0,SE,6.9,-,N/A,,Overcast,140,2012-09-04 10:36:00
2:56 AM,55.4,51.8,88,30.00,4.0,SE,6.9,-,N/A,,Overcast,130,2012-09-04 10:56:00
3:16 AM,55.4,51.8,88,30.00,6.0,SE,8.1,-,N/A,,Overcast,140,2012-09-04 11:16:00
3:36 AM,55.4,51.8,88,30.00,10.0,SSE,6.9,-,N/A,,Overcast,150,2012-09-04 11:36:00
3:56 AM,55.4,51.8,88,30.01,6.0,SE,5.8,-,N/A,,Overcast,140,2012-09-04 11:56:00
4:16 AM,55.4,51.8,88,30.01,4.0,South,6.9,-,N/A,,Overcast,180,2012-09-04 12:16:00
4:36 AM,55.4,51.8,88,30.02,9.0,South,5.8,-,N/A,,Overcast,170,2012-09-04 12:36:00
4:56 AM,55.4,51.8,88,30.03,10.0,SSW,3.5,-,N/A,,Mostly Cloudy,200,2012-09-04 12:56:00
5:16 AM,53.6,50.0,88,30.03,10.0,SSW,6.9,-,N/A,,Overcast,200,2012-09-04 13:16:00
5:36 AM,53.6,50.0,88,30.04,10.0,SSW,6.9,-,N/A,,Mostly Cloudy,200,2012-09-04 13:36:00
5:56 AM,53.6,48.2,82,30.05,10.0,SW,15.0,18.4,N/A,,Overcast,220,2012-09-04 13:56:00
6:16 AM,53.6,46.4,77,30.06,10.0,SW,10.4,-,N/A,,Mostly Cloudy,220,2012-09-04 14:16:00
6:36 AM,53.6,48.2,82,30.07,10.0,South,5.8,-,N/A,,Mostly Cloudy,180,2012-09-04 14:36:00
6:56 AM,53.6,48.2,82,30.08,10.0,SSE,5.8,-,N/A,,Overcast,160,2012-09-04 14:56:00
7:16 AM,55.4,48.2,77,30.08,10.0,South,5.8,-,N/A,,Overcast,190,2012-09-04 15:16:00
7:36 AM,55.4,46.4,72,30.09,10.0,South,4.6,-,N/A,,Overcast,170,2012-09-04 15:36:00
7:56 AM,55.4,46.4,72,30.09,10.0,SW,11.5,-,N/A,,Scattered Clouds,220,2012-09-04 15:56:00
8:16 AM,55.4,46.4,72,30.10,10.0,SW,6.9,-,N/A,,Scattered Clouds,220,2012-09-04 16:16:00
8:36 AM,55.4,46.4,72,30.11,10.0,South,4.6,-,N/A,,Mostly Cloudy,190,2012-09-04 16:36:00
8:56 AM,55.4,46.4,72,30.11,10.0,SSW,8.1,-,N/A,,Overcast,210,2012-09-04 16:56:00
9:16 AM,55.4,46.4,72,30.13,10.0,South,3.5,-,N/A,,Overcast,190,2012-09-04 17:16:00
9:36 AM,55.4,46.4,72,30.14,10.0,South,5.8,-,N/A,,Overcast,170,2012-09-04 17:36:00
9:56 AM,55.4,46.4,72,30.14,10.0,South,9.2,-,N/A,,Overcast,180,2012-09-04 17:56:00
10:16 AM,57.2,46.4,67,30.15,10.0,SSW,10.4,16.1,N/A,,Scattered Clouds,200,2012-09-04 18:16:00
10:36 AM,57.2,46.4,67,30.16,10.0,SSW,10.4,-,N/A,,Clear,210,2012-09-04 18:36:00
10:56 AM,57.2,46.4,67,30.16,10.0,SSW,12.7,19.6,N/A,,Clear,210,2012-09-04 18:56:00
11:16 AM,57.2,46.4,67,30.17,10.0,SSW,10.4,16.1,N/A,,Scattered Clouds,200,2012-09-04 19:16:00
11:36 AM,57.2,46.4,67,30.17,10.0,SSW,10.4,-,N/A,,Mostly Cloudy,210,2012-09-04 19:36:00
11:56 AM,60.8,46.4,59,30.18,10.0,SW,11.5,18.4,N/A,,Mostly Cloudy,230,2012-09-04 19:56:00
12:16 PM,57.2,46.4,67,30.18,10.0,SW,10.4,16.1,N/A,,Scattered Clouds,220,2012-09-04 20:16:00
12:36 PM,57.2,46.4,67,30.19,10.0,SSW,11.5,-,N/A,,Mostly Cloudy,210,2012-09-04 20:36:00
12:56 PM,57.2,46.4,67,30.20,10.0,South,9.2,-,N/A,,Overcast,180,2012-09-04 20:56:00
1:16 PM,57.2,46.4,67,30.20,10.0,South,9.2,-,N/A,,Overcast,180,2012-09-04 21:16:00
1:36 PM,57.2,46.4,67,30.21,10.0,South,8.1,-,N/A,,Overcast,180,2012-09-04 21:36:00
1:56 PM,57.2,46.4,67,30.22,10.0,SSW,6.9,-,N/A,,Overcast,200,2012-09-04 21:56:00
2:16 PM,57.2,46.4,67,30.22,10.0,South,9.2,-,N/A,,Overcast,190,2012-09-04 22:16:00
2:36 PM,57.2,46.4,67,30.22,10.0,South,4.6,-,N/A,,Overcast,190,2012-09-04 22:36:00
2:56 PM,57.2,46.4,67,30.23,10.0,SSW,11.5,-,N/A,,Overcast,200,2012-09-04 22:56:00
3:16 PM,57.2,46.4,67,30.23,10.0,SSW,6.9,16.1,N/A,,Overcast,200,2012-09-04 23:16:00
3:36 PM,57.2,46.4,67,30.23,10.0,SSW,11.5,-,N/A,,Overcast,200,2012-09-04 23:36:00
3:56 PM,57.2,46.4,67,30.23,10.0,SSW,8.1,-,N/A,,Overcast,210,2012-09-04 23:56:00
4:16 PM,57.2,46.4,67,30.23,10.0,South,6.9,-,N/A,,Overcast,180,2012-09-05 00:16:00
4:36 PM,57.2,46.4,67,30.24,10.0,South,8.1,-,N/A,,Overcast,180,2012-09-05 00:36:00
4:56 PM,57.2,46.4,67,30.24,10.0,SSW,8.1,-,N/A,,Overcast,200,2012-09-05 00:56:00
5:16 PM,57.2,46.4,67,30.24,10.0,South,8.1,-,N/A,,Overcast,180,2012-09-05 01:16:00
5:36 PM,55.4,46.4,72,30.24,10.0,South,6.9,-,N/A,,Overcast,180,2012-09-05 01:36:00
5:56 PM,55.4,46.4,72,30.24,10.0,SSW,6.9,-,N/A,,Overcast,200,2012-09-05 01:56:00
6:16 PM,55.4,44.6,67,30.25,10.0,South,5.8,-,N/A,,Overcast,180,2012-09-05 02:16:00
6:36 PM,55.4,44.6,67,30.25,10.0,SSW,5.8,-,N/A,,Overcast,200,2012-09-05 02:36:00
6:56 PM,55.4,44.6,67,30.25,10.0,SSW,6.9,-,N/A,,Overcast,200,2012-09-05 02:56:00
7:16 PM,55.4,44.6,67,30.25,10.0,South,6.9,-,N/A,,Overcast,180,2012-09-05 03:16:00
7:36 PM,55.4,44.6,67,30.25,10.0,SSW,4.6,-,N/A,,Overcast,200,2012-09-05 03:36:00
7:56 PM,53.6,44.6,72,30.25,10.0,Calm,Calm,-,N/A,,Overcast,0,2012-09-05 03:56:00
8:16 PM,55.4,44.6,67,30.26,10.0,SSW,5.8,-,N/A,,Overcast,200,2012-09-05 04:16:00
8:36 PM,55.4,44.6,67,30.26,10.0,South,4.6,-,N/A,,Overcast,180,2012-09-05 04:36:00
8:56 PM,53.6,44.6,72,30.26,10.0,Calm,Calm,-,N/A,,Overcast,0,2012-09-05 04:56:00
9:16 PM,53.6,44.6,72,30.26,10.0,SE,4.6,-,N/A,,Mostly Cloudy,130,2012-09-05 05:16:00
9:36 PM,51.8,42.8,71,30.26,10.0,Calm,Calm,-,N/A,,Clear,0,2012-09-05 05:36:00
9:56 PM,51.8,44.6,76,30.27,10.0,Calm,Calm,-,N/A,,Clear,0,2012-09-05 05:56:00
10:16 PM,51.8,44.6,76,30.27,10.0,East,3.5,-,N/A,,Mostly Cloudy,100,2012-09-05 06:16:00
10:36 PM,51.8,44.6,76,30.27,10.0,Calm,Calm,-,N/A,,Mostly Cloudy,0,2012-09-05 06:36:00
10:56 PM,51.8,44.6,76,30.27,10.0,Calm,Calm,-,N/A,,Mostly Cloudy,0,2012-09-05 06:56:00
11:16 PM,51.8,44.6,76,30.27,10.0,Calm,Calm,-,N/A,,Overcast,0,2012-09-05 07:16:00
11:36 PM,51.8,44.6,76,30.27,10.0,Calm,Calm,-,N/A,,Overcast,0,2012-09-05 07:36:00
11:56 PM,51.8,44.6,76,30.27,10.0,ESE,3.5,-,N/A,,Overcast,120,2012-09-05 07:56:00